軌道要素
Epoch 2016 May 12.0 TT = JDT 2457520.5
T 2016 May 15.17616 TT MPCW
q 2.5140745 (2000.0) P Q
z +0.0034158 Peri. 24.70822 -0.74489513 +0.09553188
+/-0.0000015 Node 135.77700 +0.33540675 -0.80192058
e 0.9914125 Incl. 71.21619 +0.57674392 +0.58974320
From 550 observations 2015 Dec. 16-2017 Apr. 20, mean residual 0".6.
|